GFSFLT1_500_rhum_219.txt.gz
RH
42 46 54 54 56 50 51 47 50 50 55 60 57 47 50 47 54 52 48 40 33 32 28 27 34 28 47 59 34 25 26 26
37 33 45 48 50 54 50 43 46 50 52 51 47 46 51 63 67 61 48 42 31 30 29 26 31 29 29 40 35 26 23 25
35 31 30 43 51 48 51 47 38 47 54 51 48 51 54 57 63 55 44 39 36 33 30 29 30 28 29 34 33 27 26 25
46 33 29 31 37 48 46 52 46 38 46 52 49 45 47 44 38 36 42 51 47 40 33 26 28 29 28 29 34 38 33 32
35 40 29 27 29 36 45 42 50 45 41 47 56 54 50 44 44 48 49 52 46 43 36 28 28 35 27 30 35 34 31 30
40 36 38 31 28 33 36 41 40 48 47 39 42 45 45 40 39 43 46 47 48 47 44 36 30 32 31 32 34 34 34 34
35 35 36 37 34 30 31 31 35 40 40 48 41 39 40 42 43 40 42 46 46 44 42 39 35 34 33 36 40 38 37 36
31 31 36 38 36 39 37 34 30 35 39 39 49 45 48 46 44 48 42 39 40 44 44 41 37 38 41 40 39 41 40 40
34 35 33 34 42 39 40 42 37 31 37 42 49 36 41 45 48 49 50 44 41 41 43 46 45 44 43 47 47 44 43 39
44 44 42 38 38 42 44 43 40 37 33 34 41 42 38 35 38 40 42 51 51 49 50 46 46 50 48 46 46 44 44 47
60 57 58 59 55 61 53 55 46 43 42 38 37 41 41 44 48 38 37 42 47 50 48 50 50 54 53 51 48 48 50 49
69 55 64 71 84 74 68 70 65 62 52 50 47 44 46 45 44 56 58 51 45 46 50 56 58 54 57 54 49 52 50 50
71 67 51 43 71 85 96 77 84 88 77 69 72 72 64 58 55 56 62 68 62 55 53 57 69 67 73 67 59 55 59 58
93 100 84 60 61 90 90 99 92 98 96 95 86 83 77 72 67 62 66 68 74 73 60 64 70 74 79 79 84 86 90 85
100 100 100 97 98 98 94 88 82 91 96 95 98 95 97 84 75 70 65 62 59 63 61 59 56 59 61 66 64 74 85 86
100 100 100 100 95 99 98 98 100 86 92 96 97 95 97 97 97 97 90 67 56 51 50 44 49 47 44 47 51 57 72 85
88 96 97 96 98 98 99 99 99 99 99 100 97 97 96 97 97 98 94 84 68 62 61 48 40 34 31 34 34 37 43 52
43 42 58 82 84 91 94 97 97 98 99 97 98 97 98 97 97 97 98 89 48 35 32 33 25 20 14 25 32 35 35 40
30 28 22 41 63 61 82 94 96 97 93 98 98 85 98 98 98 86 58 54 34 24 22 24 25 18 11 11 17 36 35 37

GFSFLT1_500_rhum_222.txt.gz
RH
45 44 44 42 57 58 48 47 58 56 54 57 64 65 58 61 79 73 61 56 54 49 39 33 47 54 43 42 45 86 85 36
41 43 43 40 42 57 60 44 48 55 54 51 53 50 50 55 72 82 87 76 58 51 40 35 45 60 47 55 53 64 72 44
38 38 39 43 41 47 53 50 51 53 58 54 51 53 56 64 76 78 62 55 60 53 50 42 46 61 53 41 37 42 46 37
38 36 40 33 40 39 46 50 48 49 56 57 55 53 60 58 50 56 58 59 60 66 66 49 41 44 42 50 45 36 40 40
45 39 33 38 31 41 38 50 71 49 46 50 44 45 55 64 65 63 67 66 66 55 56 52 52 48 40 39 55 48 44 37
38 44 36 35 35 30 37 35 49 65 73 51 47 42 43 50 55 58 56 59 59 53 54 48 44 54 54 48 40 37 38 37
31 37 39 39 36 36 37 45 38 46 47 39 36 52 63 47 47 55 59 55 52 51 54 49 46 44 53 61 49 44 46 42
37 40 38 35 36 40 39 39 42 38 39 32 33 41 48 54 44 42 45 50 50 44 46 51 52 50 55 55 53 48 49 49
37 39 39 35 34 32 37 42 41 46 40 30 32 45 70 62 62 51 48 43 45 47 48 47 48 54 59 66 55 45 45 42
37 52 44 36 35 32 38 40 42 41 40 33 29 50 61 66 54 62 55 51 49 54 56 51 45 48 51 51 58 57 46 45
55 63 61 48 46 47 48 52 52 52 47 47 45 46 57 67 75 72 50 47 48 49 50 51 50 46 49 47 45 50 51 52
86 69 77 52 54 66 58 52 49 49 54 57 51 46 52 49 50 69 78 66 43 38 38 41 43 51 54 52 50 48 47 48
97 96 88 83 76 74 70 63 60 62 64 63 58 57 53 56 58 59 55 61 80 78 52 45 43 44 49 55 56 56 55 59
99 97 93 84 70 77 68 68 76 88 74 71 70 73 73 59 58 60 62 62 62 62 82 92 82 67 54 53 62 59 61 65
81 94 99 93 98 87 76 74 72 61 64 69 84 88 87 86 80 72 69 71 67 62 62 78 100 100 95 84 82 75 72 77
98 95 98 95 100 98 99 69 85 98 78 72 74 90 98 100 98 95 83 94 93 90 87 76 86 97 96 97 97 99 99 90
90 92 93 96 99 98 98 99 100 98 100 98 98 97 81 80 96 98 98 100 96 87 78 75 71 74 86 93 96 96 94 93
70 75 81 84 80 89 92 98 97 100 98 95 96 97 99 99 90 93 99 97 97 96 96 95 91 86 94 95 98 94 85 87
48 35 34 53 61 42 69 93 96 96 99 100 99 96 100 98 97 100 100 97 97 97 98 97 96 97 95 96 95 94 93 73

GFSFLT1_500_rhum_225.txt.gz
RH
40 44 36 38 52 52 56 54 58 60 58 60 68 67 62 62 72 76 56 48 52 46 52 62 57 47 52 44 49 41 48 69
44 40 35 34 43 44 50 59 58 63 66 56 55 50 54 58 62 78 71 53 43 44 50 53 44 46 75 71 60 47 52 68
34 42 37 35 36 42 42 53 64 60 72 66 59 59 60 60 66 82 76 48 47 43 48 54 52 48 47 80 66 54 58 57
36 37 37 41 33 34 39 41 58 65 73 71 58 56 59 57 54 52 50 54 51 54 56 59 60 53 42 80 76 67 66 53
36 37 40 40 42 34 34 34 34 59 64 66 70 54 52 50 58 62 65 68 68 58 54 50 59 67 55 48 60 67 66 54
33 35 40 52 40 41 34 28 41 56 58 76 86 93 54 49 53 68 88 89 77 64 57 57 52 66 80 63 52 46 51 59
30 35 37 33 34 29 28 32 35 39 42 61 95 96 95 99 87 60 71 92 81 68 58 56 57 56 69 71 67 52 54 50
36 35 38 33 36 44 42 46 40 33 32 36 40 66 76 94 94 86 72 66 71 71 70 62 56 54 60 69 76 78 62 50
41 38 35 36 35 42 46 44 46 43 35 34 34 33 45 78 97 80 96 88 82 71 64 64 54 48 51 60 62 71 75 56
45 42 40 43 45 49 52 51 50 45 40 37 32 36 42 56 86 96 72 67 82 70 54 46 50 45 43 47 51 54 59 63
41 42 47 48 56 52 52 48 42 43 41 41 41 37 43 48 61 75 92 90 93 95 63 46 43 41 40 40 41 42 44 52
65 61 54 68 64 75 67 48 47 43 38 36 36 41 40 50 52 63 72 76 83 83 78 67 56 50 48 50 47 43 41 41
90 90 98 93 76 70 96 74 61 60 46 41 45 41 49 61 54 57 69 66 78 98 74 80 59 58 55 53 51 47 41 43
98 93 76 89 90 100 97 97 86 75 70 53 49 48 48 59 77 71 72 61 48 48 92 93 73 64 51 51 50 47 46 46
98 98 98 100 98 99 98 96 98 97 81 69 63 58 62 62 60 73 82 78 72 70 65 63 69 96 94 81 64 51 44 46
98 97 99 97 100 97 94 98 89 90 90 86 80 71 73 72 77 72 73 87 85 77 75 73 74 75 75 77 89 86 96 83
98 100 99 99 96 96 98 81 93 97 97 78 75 92 93 81 72 67 64 67 82 93 93 85 75 68 69 69 56 83 98 97
70 92 97 99 100 94 98 97 100 91 100 99 100 94 93 87 100 88 70 87 92 93 90 87 88 83 78 76 76 62 71 70
43 34 32 52 86 84 90 96 95 99 100 95 98 98 94 67 74 94 100 98 86 91 96 90 85 96 88 82 87 89 81 83

GFSFLT1_500_rhum_231.txt.gz
RH
54 52 71 73 64 56 48 47 51 70 66 56 62 73 74 75 87 94 93 93 95 93 82 89 99 95 92 96 89 78 60 36
49 50 62 59 54 46 39 45 52 66 55 52 57 64 79 77 79 86 89 97 97 93 86 77 91 93 93 96 93 98 79 45
47 48 55 52 51 39 40 47 48 61 55 54 58 65 74 82 80 84 88 95 95 86 79 63 59 98 96 90 89 87 93 70
53 49 45 50 51 40 37 50 46 56 61 54 59 69 77 79 82 86 93 93 87 84 80 68 60 66 90 96 98 78 67 57
50 60 54 47 51 48 40 54 46 52 63 53 58 57 62 67 78 87 84 76 70 86 88 88 65 56 63 86 82 84 80 65
53 57 61 50 46 52 48 42 44 50 51 56 63 64 66 72 78 80 83 86 73 86 92 99 95 58 52 55 61 72 70 72
64 54 42 41 37 42 48 38 42 40 50 58 56 60 74 73 83 88 89 90 83 78 86 93 99 88 73 66 55 51 64 74
66 54 45 42 38 43 42 39 33 37 42 51 56 61 75 92 97 97 97 95 86 74 72 78 87 94 91 89 74 59 62 54
57 51 49 46 44 45 46 39 41 36 39 52 57 79 92 94 97 97 95 93 98 93 82 84 83 80 96 100 90 72 70 63
68 54 45 40 43 43 42 42 40 44 46 70 77 81 82 87 96 94 94 96 92 97 94 94 97 87 86 90 80 76 79 78
75 66 56 45 45 49 48 49 47 54 56 63 75 88 100 98 93 90 71 92 86 90 96 95 94 96 95 92 88 82 66 74
89 68 65 61 56 57 58 57 52 48 53 68 74 83 96 97 92 80 76 69 72 78 88 97 96 92 93 95 95 98 78 73
83 88 81 78 76 61 64 71 67 58 50 51 55 71 78 82 91 82 68 66 73 64 63 79 96 100 95 94 96 98 95 93
96 96 93 98 77 64 63 69 70 66 64 59 57 55 57 60 65 65 62 59 58 57 65 82 98 92 86 96 96 94 88 93
97 98 96 99 95 80 70 76 78 83 80 71 69 77 71 64 55 53 60 63 60 65 66 62 81 74 72 84 64 97 96 90
96 98 96 97 100 99 96 97 98 82 87 84 84 76 74 69 65 66 54 46 47 47 61 70 64 80 67 66 62 92 91 86
97 100 98 94 96 97 99 100 99 95 98 76 85 96 100 88 73 65 50 49 48 42 42 43 60 73 86 86 70 83 97 83
100 100 100 99 96 94 100 96 100 98 60 94 98 95 100 81 77 71 70 59 54 65 46 43 67 55 47 72 83 74 78 83
99 100 100 97 100 100 100 100 100 99 98 98 100 95 98 87 66 70 62 59 44 74 77 82 57 46 40 62 63 60 92 91

GFSFLT1_500_rhum_234.txt.gz
RH
80 90 93 82 67 63 68 64 63 62 64 70 76 80 77 75 81 83 81 96 96 88 90 91 95 89 96 87 95 95 72 92
70 85 99 84 62 52 53 60 61 65 58 56 61 69 72 79 76 84 88 88 98 94 94 82 88 96 95 95 86 95 93 77
51 58 83 89 68 52 50 55 53 63 62 56 54 70 77 82 95 90 89 91 96 94 92 83 88 98 93 96 96 89 96 86
52 54 66 79 71 63 58 58 56 55 61 61 57 72 73 73 82 82 87 96 98 94 94 90 86 91 83 95 97 89 95 96
62 72 68 70 65 63 62 54 52 50 62 56 57 61 54 60 67 79 86 86 89 90 86 89 95 92 82 78 98 97 89 91
52 71 62 56 62 52 56 54 49 50 57 56 52 63 60 62 73 92 94 90 92 94 84 92 96 96 93 79 79 90 93 96
18 60 66 55 62 57 51 48 49 47 48 52 46 55 62 62 66 72 75 84 86 93 93 92 100 100 91 88 62 66 76 90
18 56 58 50 60 63 54 49 45 42 48 56 51 47 56 53 65 66 69 74 77 84 94 94 100 100 98 93 74 59 64 75
63 37 40 35 50 62 62 52 46 45 46 57 60 43 46 53 68 69 70 75 83 85 91 92 99 100 96 96 95 71 67 70
78 93 47 48 54 71 71 63 59 58 53 54 59 51 45 52 61 73 76 81 81 92 86 88 100 99 97 96 89 92 67 64
91 89 85 63 70 73 69 67 66 68 71 68 59 58 62 78 82 86 96 98 95 95 96 95 95 96 96 96 92 86 95 87
99 100 86 76 69 63 62 64 66 70 79 75 73 76 69 67 100 97 99 99 96 97 94 96 93 94 96 96 96 88 88 94
98 97 98 88 69 62 62 69 67 69 74 75 74 73 82 94 97 99 98 97 95 96 95 87 96 95 96 98 96 93 89 95
97 98 98 97 86 75 65 63 62 66 64 62 66 67 83 96 97 97 96 96 97 85 88 78 81 82 87 94 96 96 96 95
98 98 97 97 98 97 88 83 81 68 69 66 62 59 65 90 95 90 84 93 86 83 90 96 82 82 77 73 93 94 96 94
100 98 98 100 92 97 99 98 99 94 71 71 70 68 68 74 80 85 91 87 80 68 70 70 93 81 82 66 72 98 92 94
100 100 97 99 99 99 97 98 97 98 87 81 76 74 75 86 90 96 73 73 67 75 82 87 99 74 61 64 70 68 67 73
100 99 99 100 98 99 98 98 99 97 97 98 98 89 86 71 69 78 72 95 86 73 57 60 57 61 69 62 51 50 46 42
100 100 98 99 98 98 96 100 98 100 97 98 100 100 96 93 92 84 94 98 91 82 73 55 52 53 53 48 51 58 53 41